Temperature
10 11 11 12 12 12 12 11 11 11 11 11 11 10 10 10 10 9 8 7 6 5 5 4 4 3 3 2 1 1 1 -0 -1 -1 -1 -2 -2 -2 -2 -3 -3 -4 -4
9 10 10 10 10 10 10 10 10 9 9 9 9 9 9 9 8 7 6 5 4 4 3 3 3 2 2 1 0 -0 -1 -1 -2 -2 -3 -3 -3 -4 -4 -5 -5 -5 -5
8 9 9 9 9 9 9 9 9 8 8 8 8 8 7 7 6 5 4 4 3 3 2 2 2 1 1 -0 -1 -1 -2 -2 -3 -4 -4 -5 -5 -5 -6 -6 -6 -6 -5
7 7 8 8 8 7 8 8 7 7 7 7 6 6 5 4 4 3 3 3 2 2 2 1 1 0 -0 -1 -1 -2 -3 -3 -4 -5 -6 -6 -6 -6 -7 -7 -7 -7 -6
6 6 6 6 6 6 6 6 5 5 5 5 4 3 3 2 2 2 2 2 2 1 1 1 0 -0 -1 -2 -2 -3 -4 -5 -5 -6 -7 -7 -7 -7 -8 -8 -8 -8 -7
4 4 4 4 4 4 4 4 3 3 2 2 2 2 1 1 1 1 1 1 1 0 -0 -0 -1 -1 -2 -3 -3 -4 -5 -6 -7 -7 -8 -8 -8 -8 -8 -8 -9 -9 -9
3 2 2 3 2 2 2 2 1 1 1 1 1 0 0 0 1 1 1 0 -0 -1 -1 -1 -2 -3 -3 -4 -4 -5 -5 -6 -7 -8 -8 -8 -8 -8 -9 -9 -9 -9 -9
1 1 1 1 1 0 0 0 -0 -0 -0 -0 -0 -0 -0 -0 -0 -0 -1 -1 -1 -2 -2 -3 -3 -4 -4 -5 -6 -6 -6 -6 -7 -8 -8 -8 -8 -8 -9 -9 -9 -9 -8
-0 -0 -1 -0 -1 -1 -1 -1 -1 -1 -1 -1 -0 -1 -1 -1 -1 -2 -2 -2 -3 -3 -3 -4 -4 -5 -5 -6 -7 -7 -7 -7 -7 -7 -7 -8 -8 -8 -8 -8 -8 -8 -8
-1 -1 -1 -1 -1 -1 -1 -1 -1 -1 -1 -1 -1 -1 -2 -2 -2 -3 -3 -3 -4 -4 -5 -5 -5 -6 -6 -7 -8 -8 -7 -7 -7 -7 -7 -7 -7 -7 -7 -8 -8 -9 -9
-1 -1 -1 -1 -1 -1 -1 -1 -1 -1 -1 -1 -1 -2 -2 -3 -4 -4 -4 -5 -5 -5 -5 -6 -6 -6 -7 -8 -8 -8 -8 -8 -8 -7 -7 -7 -7 -7 -7 -7 -8 -8 -9
-1 -1 -1 -1 -1 -1 -1 -1 -1 -1 -1 -2 -2 -3 -3 -4 -4 -5 -5 -6 -6 -6 -6 -6 -7 -7 -8 -8 -8 -8 -8 -8 -8 -8 -7 -7 -7 -7 -7 -7 -7 -8 -8
-1 -1 -1 -1 -1 -1 -1 -1 -2 -2 -2 -3 -3 -4 -4 -4 -5 -5 -6 -6 -7 -7 -7 -7 -8 -7 -7 -7 -7 -8 -8 -8 -8 -8 -7 -7 -7 -7 -7 -7 -7 -7 -7
-1 -1 -1 -1 -1 -1 -2 -2 -2 -3 -3 -3 -4 -4 -5 -5 -6 -6 -7 -7 -7 -7 -7 -7 -7 -8 -8 -8 -8 -8 -8 -8 -8 -8 -8 -7 -7 -7 -7 -7 -7 -7 -7
-1 -1 -1 -1 -2 -2 -2 -2 -3 -3 -4 -4 -4 -5 -5 -6 -7 -7 -8 -8 -8 -8 -8 -8 -8 -8 -8 -8 -8 -8 -8 -8 -8 -8 -8 -8 -7 -7 -7 -7 -7 -8 -8
-1 -1 -1 -2 -2 -2 -3 -3 -3 -4 -4 -5 -5 -6 -6 -7 -7 -7 -8 -8 -8 -8 -8 -8 -8 -8 -8 -8 -8 -7 -8 -8 -8 -8 -8 -8 -8 -8 -7 -7 -7 -8 -8
-1 -1 -2 -2 -2 -3 -3 -3 -4 -4 -5 -5 -6 -6 -7 -7 -7 -8 -8 -8 -8 -8 -8 -8 -8 -8 -8 -8 -8 -8 -8 -8 -8 -8 -8 -8 -8 -8 -7 -7 -7 -8 -8
-1 -2 -2 -2 -3 -3 -3 -4 -4 -5 -5 -6 -6 -7 -7 -7 -8 -8 -8 -8 -8 -9 -9 -9 -8 -8 -8 -8 -8 -8 -8 -8 -8 -8 -8 -8 -8 -8 -7 -8 -8 -8 -8
-2 -2 -2 -2 -3 -3 -4 -4 -5 -5 -6 -6 -7 -7 -7 -8 -8 -8 -9 -9 -9 -9 -9 -8 -8 -8 -8 -8 -8 -8 -8 -8 -8 -8 -8 -8 -8 -8 -8 -8 -8 -8 -8
-2 -2 -2 -3 -3 -4 -4 -5 -5 -6 -6 -7 -7 -8 -8 -8 -8 -8 -9 -9 -9 -9 -9 -8 -8 -8 -8 -8 -8 -8 -8 -8 -8 -8 -8 -8 -8 -8 -8 -8 -8 -8 -8
-2 -2 -3 -3 -4 -4 -5 -5 -6 -6 -7 -7 -8 -8 -8 -8 -9 -9 -9 -9 -9 -9 -9 -8 -8 -8 -8 -8 -8 -8 -8 -8 -8 -8 -8 -8 -8 -8 -8 -8 -8 -8 -8
-2 -3 -3 -4 -4 -5 -5 -6 -6 -7 -7 -8 -8 -8 -9 -9 -9 -9 -9 -9 -9 -9 -9 -9 -8 -8 -8 -8 -9 -8 -8 -8 -8 -8 -8 -8 -8 -8 -8 -8 -8 -8 -8
-2 -3 -3 -4 -4 -5 -6 -6 -7 -7 -8 -8 -8 -8 -9 -9 -9 -9 -9 -9 -9 -9 -9 -9 -9 -8 -8 -9 -9 -9 -8 -8 -8 -8 -8 -8 -8 -8 -8 -8 -8 -8 -8
-3 -3 -4 -4 -5 -5 -6 -6 -7 -7 -8 -8 -8 -8 -9 -9 -9 -9 -9 -9 -9 -9 -9 -9 -9 -8 -8 -8 -8 -8 -8 -8 -8 -8 -8 -8 -8 -8 -8 -8 -8 -8 -8
-3 -4 -4 -4 -5 -5 -6 -7 -7 -8 -8 -8 -8 -9 -9 -9 -9 -9 -9 -9 -9 -9 -9 -9 -9 -8 -8 -8 -8 -8 -8 -8 -8 -8 -8 -8 -8 -8 -8 -8 -8 -8 -8
-3 -4 -4 -5 -5 -6 -6 -7 -7 -8 -8 -8 -8 -9 -9 -9 -9 -9 -9 -9 -9 -8 -8 -8 -8 -8 -8 -8 -8 -8 -8 -8 -8 -8 -8 -8 -8 -8 -8 -8 -8 -8 -8
Wind_Speed
7 6 4 3 1 1 3 4 6 7 10 11 12 13 13 13 13 13 12 13 12 10 9 8 7 5 4 3 2 2 2 3 5 4 3 3 4 6 12 16 16 17 17
5 4 3 2 2 3 4 6 8 9 10 12 13 13 14 14 13 14 14 12 12 11 9 8 6 4 4 3 2 2 3 4 5 6 3 3 6 7 7 8 13 16 18
5 5 5 5 5 6 7 8 10 11 12 12 13 14 14 14 14 14 13 12 11 10 8 7 5 4 3 2 2 3 3 4 5 5 5 4 4 5 6 7 9 12 17
6 6 7 7 7 8 9 11 12 12 13 14 14 14 14 14 14 14 13 12 11 9 7 6 4 3 2 2 3 4 4 4 4 5 5 5 5 6 5 7 9 7 10
8 8 9 10 11 12 13 13 14 14 15 15 16 15 14 12 12 13 12 11 10 8 6 4 3 2 1 2 2 3 4 4 4 5 6 5 6 5 6 6 11 10 10
10 10 10 12 13 14 14 15 15 15 15 15 15 14 13 11 17 17 12 9 8 7 5 4 3 3 4 5 7 7 6 5 4 4 5 7 8 7 7 9 11 12 9
11 11 11 13 14 13 14 14 14 14 14 14 14 13 13 14 16 15 13 8 7 6 4 3 2 2 4 4 7 9 9 11 11 8 8 8 9 9 10 11 10 11 13
11 11 11 12 13 13 13 14 13 12 12 12 12 11 10 11 13 13 12 7 6 5 4 2 0 3 4 6 5 4 5 6 9 8 7 9 10 9 9 10 10 9 10
10 10 10 11 12 12 12 12 11 11 11 10 9 9 9 8 10 10 9 5 4 3 2 1 2 4 9 11 5 5 6 7 11 15 16 17 20 21 17 8 7 9 11
9 9 9 10 11 11 11 10 9 10 10 9 9 8 7 5 7 8 8 4 3 2 1 2 5 7 10 11 6 4 7 8 8 8 10 13 13 14 16 7 5 7 8
8 9 10 10 10 10 10 9 9 9 10 9 9 8 7 7 7 8 7 3 1 0 1 2 4 10 12 12 11 5 9 10 4 6 8 8 8 6 6 6 6 7 10
9 9 9 9 8 8 9 9 8 8 9 7 7 6 5 5 7 7 7 6 4 1 2 3 5 12 13 13 10 10 13 10 4 6 7 8 8 8 8 8 11 12 13
9 9 9 9 8 8 8 8 7 6 6 5 4 4 3 4 5 8 7 8 8 4 3 8 10 12 12 8 10 12 9 5 5 6 8 8 7 8 9 9 9 9 12
9 8 7 8 8 7 6 5 5 5 5 4 4 3 2 3 3 3 2 4 6 5 3 6 10 11 9 9 8 7 5 5 6 7 8 9 9 8 9 8 9 10 10
8 7 7 7 7 6 6 5 5 3 4 3 2 1 1 2 4 7 5 3 3 4 3 3 3 4 5 5 5 5 5 5 6 7 8 9 10 10 10 8 6 7 8
7 6 5 5 5 5 5 5 8 7 8 7 5 2 1 4 7 9 9 10 10 10 5 3 4 5 5 6 7 7 7 7 7 8 8 9 9 10 11 10 8 9 11
7 5 4 4 4 4 3 4 3 5 7 8 8 7 6 7 8 9 9 9 9 8 3 4 5 5 6 6 6 7 8 8 7 8 8 9 9 10 10 11 11 10 11
6 6 5 4 4 4 3 3 3 3 3 3 6 8 8 8 8 8 9 7 5 4 3 4 5 6 6 6 7 7 8 8 8 8 8 9 9 9 10 11 11 12 13
6 4 4 4 4 4 3 3 3 2 2 2 3 5 7 8 7 7 6 2 4 5 5 5 6 6 7 7 7 7 8 9 9 9 9 9 9 9 10 11 12 16 15
5 7 6 4 4 3 3 2 2 1 2 3 3 4 4 4 3 4 3 4 4 5 5 6 6 7 7 7 7 7 8 8 9 9 9 9 9 10 11 13 13 13 13
5 5 7 4 3 2 2 1 0 1 2 3 3 5 7 2 3 5 5 5 5 5 6 7 7 7 7 7 7 8 9 9 9 9 9 10 10 11 11 11 12 13 13
5 4 3 3 2 2 1 1 1 2 3 4 4 5 8 4 4 5 5 6 5 5 6 7 7 7 7 7 8 8 9 10 10 9 10 10 11 11 11 11 12 12 13
5 5 3 2 2 2 1 1 1 2 3 4 4 5 5 4 5 5 6 6 6 6 7 7 7 8 9 10 11 9 10 10 10 11 12 12 12 11 11 12 13 14 14
5 5 4 3 2 2 2 2 2 3 4 4 4 5 5 5 6 7 7 6 7 7 9 9 9 10 13 14 13 13 14 15 16 13 14 13 13 12 11 11 12 14 14
5 4 4 3 3 3 3 3 3 4 4 4 5 5 5 6 6 7 7 7 7 8 9 11 11 12 14 16 17 17 19 23 23 19 14 11 12 12 12 12 12 14 14
5 5 4 3 3 3 3 3 4 4 5 5 5 5 6 6 7 7 7 7 7 8 9 11 13 15 18 18 19 20 23 24 25 24 17 11 11 11 12 12 13 13 13
Wind_Direction
318 317 312 302 286 195 172 161 149 139 140 142 140 136 134 132 130 125 123 122 118 113 110 112 111 116 118 121 125 144 170 180 234 259 246 264 277 281 292 297 300 296 294
331 342 350 19 73 101 116 124 126 128 130 130 130 128 127 125 123 122 120 118 117 115 112 111 112 116 118 132 154 189 208 209 223 260 263 264 261 271 276 284 296 298 296
7 28 38 50 74 90 103 109 113 115 116 117 119 120 119 117 114 113 112 109 107 106 106 108 111 116 132 163 199 219 230 234 223 245 267 256 265 272 280 283 285 287 292
35 55 61 65 76 86 92 97 102 106 108 108 108 107 107 107 107 107 106 104 101 97 96 100 108 127 177 206 224 234 238 245 244 252 267 270 267 267 270 288 298 287 291
55 64 70 75 79 83 86 91 94 96 99 101 101 99 99 100 104 106 104 104 104 102 97 93 93 98 246 233 246 242 236 244 254 262 273 279 281 285 286 288 299 300 289
65 70 77 81 83 85 88 91 92 93 95 96 96 97 95 98 104 104 105 104 105 105 102 90 80 59 19 352 321 304 287 270 265 262 273 282 287 284 286 292 297 303 302
67 71 76 84 86 88 91 91 91 92 93 92 92 94 97 102 104 104 106 107 108 109 107 90 60 13 359 315 305 306 304 302 298 293 286 283 286 286 286 288 287 288 290
69 73 78 85 88 89 89 90 89 90 90 91 92 95 98 103 106 108 110 106 107 107 105 105 37 307 304 295 273 275 274 280 288 287 268 271 274 275 270 281 287 289 282
71 74 78 85 89 89 89 89 89 91 88 87 88 92 94 97 106 113 114 109 101 91 77 43 320 294 306 315 316 298 292 288 300 301 298 297 301 303 305 303 299 300 298
72 76 79 83 88 88 88 87 85 86 87 85 80 76 78 76 97 103 111 103 94 78 353 312 322 320 316 322 318 305 301 296 295 301 304 303 299 297 301 291 276 285 291
77 78 78 80 83 86 85 85 89 90 87 83 80 68 61 63 69 73 81 99 106 178 298 300 304 324 325 324 325 318 299 307 314 311 305 301 298 291 286 274 258 262 276
81 80 76 74 78 83 85 82 83 91 91 87 85 72 49 39 49 49 39 25 14 359 316 298 303 326 330 329 325 313 314 324 327 309 303 301 303 302 299 290 280 267 259
86 81 78 75 71 75 84 88 82 82 91 89 85 77 52 31 20 28 20 6 356 352 322 328 332 334 334 331 321 321 329 325 306 302 301 300 296 290 295 296 290 280 273
88 83 81 80 75 68 70 78 87 89 90 89 85 76 46 9 340 330 328 335 343 338 337 339 339 337 335 326 323 323 312 297 299 297 300 300 301 298 297 296 300 308 306
90 86 82 80 84 77 70 75 90 97 127 119 120 117 75 337 336 353 353 331 328 316 347 354 341 334 332 325 317 307 302 306 307 300 300 303 305 304 302 301 292 297 293
104 94 92 91 86 83 79 66 68 77 73 73 75 75 359 352 351 352 348 344 342 340 355 340 324 319 315 316 317 317 313 308 305 303 300 297 299 301 302 302 294 294 295
117 115 106 102 101 97 91 87 66 46 52 47 34 22 11 357 353 347 344 344 342 347 351 314 305 303 303 303 303 303 302 301 299 297 295 295 296 297 297 300 302 300 297
115 119 117 111 108 102 93 84 77 59 21 358 3 4 1 355 350 345 347 351 342 340 306 296 297 298 298 298 298 298 298 300 299 297 296 294 293 294 296 298 299 298 300
122 119 116 111 104 99 92 84 71 57 27 348 337 344 351 347 346 346 353 349 309 307 303 297 294 294 294 293 293 293 292 294 294 295 294 293 293 294 294 295 298 301 303
130 137 130 118 108 99 92 85 63 27 354 337 326 316 315 330 330 324 322 299 295 295 297 297 296 292 292 291 291 291 292 292 293 292 291 292 292 291 292 296 299 301 301
130 136 133 118 116 119 115 104 32 322 310 305 299 302 316 315 301 300 301 296 290 293 296 296 293 292 289 286 286 287 287 290 289 289 290 291 292 293 293 294 296 297 299
135 132 131 135 136 151 156 169 255 283 292 296 297 305 320 318 295 292 293 292 289 284 284 287 288 286 284 284 285 287 287 288 289 290 291 292 293 293 295 295 297 300 304
139 140 138 140 148 185 162 217 260 275 283 286 291 296 302 300 297 292 292 294 295 292 289 285 285 286 285 283 280 276 279 282 285 288 292 293 294 296 298 301 303 305 308
148 154 160 167 176 195 218 245 260 271 280 285 287 291 292 294 296 295 294 294 295 294 291 288 283 282 286 291 291 285 280 281 284 284 284 289 298 302 304 303 304 305 308
157 165 174 185 200 216 234 251 263 274 284 289 291 293 295 296 294 294 293 293 293 293 293 294 289 288 290 292 293 292 293 297 300 301 299 300 301 302 304 304 305 308 309
168 177 184 192 206 220 236 253 265 274 278 283 285 287 290 290 291 292 294 294 297 298 297 298 294 295 297 298 296 298 303 307 310 313 313 306 305 304 306 307 307 309 308
Height
1434 1433 1433 1432 1432 1432 1432 1433 1435 1436 1439 1442 1445 1448 1452 1456 1460 1463 1467 1470 1473 1476 1479 1481 1483 1485 1486 1487 1489 1489 1489 1488 1486 1485 1485 1483 1481 1478 1475 1471 1467 1463 1459
1429 1428 1427 1426 1426 1426 1427 1429 1430 1432 1435 1438 1441 1445 1448 1452 1455 1459 1462 1466 1470 1473 1475 1478 1479 1481 1482 1483 1484 1484 1484 1483 1481 1478 1476 1475 1473 1471 1467 1463 1459 1456 1452
1424 1423 1422 1422 1422 1423 1424 1425 1427 1430 1432 1435 1438 1442 1445 1449 1452 1457 1460 1464 1467 1470 1473 1475 1476 1477 1478 1479 1479 1479 1478 1477 1475 1472 1469 1468 1465 1464 1459 1455 1452 1448 1445
1422 1421 1420 1420 1420 1421 1422 1423 1425 1428 1430 1433 1437 1440 1444 1448 1452 1455 1459 1463 1466 1468 1471 1472 1473 1474 1474 1474 1474 1474 1473 1471 1469 1466 1464 1461 1459 1457 1453 1448 1443 1440 1437
1421 1420 1419 1419 1420 1420 1421 1423 1425 1427 1430 1433 1436 1440 1444 1449 1452 1456 1459 1462 1465 1466 1467 1468 1469 1469 1469 1469 1469 1468 1467 1465 1463 1461 1458 1455 1453 1450 1447 1442 1437 1432 1429
1422 1421 1421 1421 1421 1422 1423 1424 1426 1429 1431 1435 1439 1442 1447 1450 1454 1457 1459 1461 1462 1464 1465 1465 1465 1465 1465 1465 1464 1463 1462 1460 1457 1456 1453 1450 1447 1444 1441 1437 1432 1427 1421
1425 1424 1423 1423 1423 1425 1426 1427 1429 1432 1435 1438 1442 1446 1449 1452 1455 1457 1458 1460 1461 1462 1462 1462 1462 1462 1461 1460 1459 1457 1456 1454 1453 1451 1447 1444 1441 1439 1435 1431 1428 1423 1418
1428 1427 1427 1427 1427 1428 1430 1432 1434 1437 1440 1443 1445 1449 1451 1453 1455 1456 1458 1458 1459 1460 1460 1459 1459 1458 1456 1455 1453 1451 1450 1449 1447 1444 1442 1439 1436 1433 1430 1427 1422 1416 1411
1432 1432 1432 1433 1433 1434 1435 1437 1440 1442 1444 1447 1449 1451 1453 1454 1455 1456 1457 1458 1458 1457 1457 1456 1455 1453 1452 1450 1448 1446 1444 1443 1442 1439 1437 1434 1432 1429 1425 1420 1415 1410 1403
1437 1437 1437 1438 1439 1440 1441 1443 1445 1447 1449 1450 1452 1453 1454 1455 1456 1456 1456 1456 1456 1455 1454 1452 1451 1449 1447 1446 1444 1441 1439 1437 1435 1433 1431 1429 1426 1423 1420 1416 1410 1405 1399
1442 1442 1442 1443 1444 1445 1446 1448 1449 1451 1452 1453 1454 1455 1455 1456 1456 1455 1455 1454 1453 1452 1450 1449 1447 1445 1443 1442 1440 1438 1435 1433 1430 1428 1426 1423 1420 1417 1414 1410 1406 1401 1395
1446 1447 1447 1448 1449 1450 1451 1452 1453 1454 1454 1455 1455 1456 1456 1456 1455 1454 1453 1452 1451 1449 1447 1445 1443 1441 1440 1438 1436 1434 1432 1430 1427 1424 1421 1418 1415 1411 1408 1404 1400 1396 1390
1451 1451 1452 1453 1454 1454 1455 1455 1456 1456 1456 1456 1456 1456 1455 1455 1454 1453 1451 1450 1448 1446 1444 1442 1440 1438 1436 1435 1433 1431 1429 1426 1423 1420 1417 1414 1410 1406 1402 1398 1394 1389 1383
1455 1455 1456 1456 1457 1457 1457 1457 1457 1457 1457 1456 1456 1455 1454 1453 1452 1451 1449 1448 1446 1444 1442 1440 1438 1436 1434 1432 1430 1428 1426 1423 1420 1417 1413 1409 1406 1401 1397 1393 1387 1381 1374
1458 1458 1459 1459 1459 1459 1459 1459 1458 1457 1457 1457 1456 1455 1454 1452 1451 1450 1448 1445 1444 1442 1439 1438 1436 1434 1432 1430 1428 1426 1423 1421 1418 1414 1410 1405 1401 1397 1392 1388 1382 1376 1369
1460 1460 1460 1460 1460 1460 1460 1459 1458 1458 1457 1456 1455 1454 1452 1452 1450 1448 1446 1444 1442 1440 1438 1436 1434 1432 1430 1427 1425 1423 1420 1417 1414 1410 1406 1402 1397 1392 1387 1383 1377 1371 1364
1462 1462 1462 1462 1461 1461 1460 1460 1459 1458 1457 1456 1454 1453 1452 1450 1448 1446 1444 1442 1440 1438 1436 1434 1432 1430 1428 1425 1422 1419 1417 1414 1410 1407 1403 1398 1394 1388 1383 1378 1372 1366 1359
1462 1463 1462 1462 1462 1461 1460 1460 1459 1457 1456 1455 1453 1452 1450 1448 1446 1444 1442 1441 1439 1437 1435 1432 1430 1428 1425 1422 1420 1416 1413 1410 1407 1403 1399 1395 1390 1385 1379 1374 1368 1362 1355
1463 1463 1463 1462 1462 1461 1460 1459 1458 1457 1455 1454 1452 1450 1448 1446 1444 1443 1440 1439 1437 1435 1433 1430 1428 1425 1422 1420 1417 1413 1410 1407 1403 1399 1395 1391 1386 1381 1375 1370 1364 1358 1352
1462 1462 1462 1462 1461 1460 1459 1458 1457 1456 1454 1452 1450 1448 1446 1444 1442 1441 1439 1437 1435 1432 1430 1428 1425 1423 1419 1416 1413 1410 1407 1403 1399 1395 1391 1387 1382 1377 1371 1365 1360 1353 1347
1462 1462 1461 1461 1460 1459 1458 1457 1456 1454 1452 1451 1449 1446 1444 1442 1440 1438 1436 1434 1432 1430 1427 1425 1422 1419 1416 1413 1410 1406 1403 1399 1395 1391 1387 1382 1377 1372 1367 1361 1356 1349 1343
1461 1461 1460 1460 1459 1458 1457 1455 1454 1452 1450 1448 1446 1444 1442 1440 1438 1436 1434 1432 1429 1427 1424 1422 1419 1416 1413 1409 1406 1402 1399 1395 1391 1387 1382 1378 1373 1368 1363 1357 1351 1345 1339
1459 1459 1459 1458 1457 1456 1455 1453 1452 1450 1448 1446 1444 1442 1440 1437 1435 1433 1431 1428 1426 1424 1421 1418 1415 1412 1409 1406 1402 1399 1395 1391 1387 1383 1378 1373 1369 1364 1359 1353 1347 1341 1335
1457 1457 1457 1456 1455 1454 1453 1451 1449 1447 1445 1443 1441 1439 1436 1434 1432 1430 1427 1425 1423 1420 1418 1415 1412 1408 1405 1402 1399 1395 1391 1387 1383 1379 1375 1370 1365 1360 1355 1349 1343 1338 1332
1455 1455 1454 1454 1453 1452 1450 1448 1447 1445 1442 1440 1438 1436 1433 1431 1429 1426 1424 1422 1419 1417 1414 1411 1408 1405 1401 1398 1394 1391 1387 1383 1380 1376 1371 1367 1362 1356 1351 1345 1339 1334 1328
1453 1452 1452 1451 1450 1449 1447 1445 1444 1442 1439 1437 1435 1432 1430 1427 1425 1423 1420 1418 1415 1413 1410 1407 1404 1401 1397 1394 1390 1386 1383 1379 1375 1372 1367 1362 1357 1352 1347 1341 1336 1330 1324